This is the latest recevied weather packets stored in our database for station/object IW2HNF-3. If no packets are shown the sender has not sent any weather packets the latest 10 day(s).
| Time | Temp. | Humidity | Pressure | Rain* | Wind** | Luminosity | Snow |
|---|---|---|---|---|---|---|---|
| 1788525049 | 31.11° C | 44% | 1018 hPa | 0 mm | - | - | - |
| 1788524472 | 31.11° C | 44% | 1018.1 hPa | 0 mm | - | - | - |
| 1788523848 | 31.11° C | 45% | 1018.1 hPa | 0 mm | - | - | - |
| 1788523272 | 31.11° C | 45% | 1018.2 hPa | 0 mm | - | - | - |
| 1788521449 | 30.56° C | 45% | 1018.4 hPa | 0 mm | - | - | - |
| 1788520872 | 30.56° C | 45% | 1018.5 hPa | 0 mm | - | - | - |
| 1788520249 | 30.56° C | 47% | 1018.6 hPa | 0 mm | - | - | - |
| 1788517849 | 29.44° C | 49% | 1018.8 hPa | 0 mm | - | - | - |
| 1788517272 | 28.89° C | 48% | 1018.9 hPa | 0 mm | - | - | - |
| 1788516649 | 28.89° C | 47% | 1019.1 hPa | 0 mm | - | - | - |
| 1788516073 | 28.89° C | 48% | 1019.1 hPa | 0 mm | - | - | - |
| 1788515449 | 28.89° C | 49% | 1019.2 hPa | 0 mm | - | - | - |
| 1788514873 | 28.89° C | 50% | 1019.3 hPa | 0 mm | - | - | - |
| 1788514248 | 28.33° C | 49% | 1019.4 hPa | 0 mm | - | - | - |
| 1788513673 | 28.33° C | 49% | 1019.4 hPa | 0 mm | - | - | - |
| 1788513049 | 28.33° C | 49% | 1019.4 hPa | 0 mm | - | - | - |
| 1788512473 | 28.33° C | 50% | 1019.4 hPa | 0 mm | - | - | - |
| 1788511849 | 27.78° C | 50% | 1019.3 hPa | 0 mm | - | - | - |
| 1788511273 | 27.22° C | 51% | 1019.5 hPa | 0 mm | - | - | - |
| 1788510649 | 27.78° C | 50% | 1019.4 hPa | 0 mm | - | - | - |
| 1788510073 | 27.22° C | 52% | 1019.3 hPa | 0 mm | - | - | - |
| 1788509449 | 26.67° C | 52% | 1019.2 hPa | 0 mm | - | - | - |
| 1788508873 | 26.11° C | 54% | 1019.3 hPa | 0 mm | - | - | - |
| 1788508248 | 25.56° C | 54% | 1019.3 hPa | 0 mm | - | - | - |
| 1788507673 | 25.56° C | 55% | 1019.2 hPa | 0 mm | - | - | - |
* Rain latest hour (hover to see other rain measurements)
** Current wind speed in m/s (hover to see current wind gust speed)